Location: *
(43.4667°N, 11.6833°E)
Time: 15:13:35
(UTC+00:00)

Cosmos 2278 Rocket - Pass Details

Date: 19 July 2019
Orbit: 840 x 847 km, 71.0° (Epoch: 22 August)

Event Time Altitude Azimuth Distance (km) Brightness Sun altitude
Rises 21:21:49 0° 339° (NNW) 3,412 6.9 -20.3°
Reaches altitude 10° 21:24:24 10° 347° (NNW) 2,474 5.7 -20.5°
Maximum altitude 21:29:48 43° 58° (ENE) 1,167 2.9 -21.0°
Enters shadow 21:31:56 31° 106° (ESE) 1,452 3.1 -21.2°
